[[{"header":{"parameterUnit":"m.s-1","parameterCategory":1,"la1":30.2991,"la2":30.254,"lo1":-89.0895,"lo2":-89.0444,"dy":0.0017,"dx":0.0017,"nx":28,"ny":28,"refTime":"2024-08-12T21:00:00:Z","depth":0,"parameterNumber":2,"parameterNumberName":"U-component_of_WINDS"},"data":[0,0,0,0,0,0,0,0,0,0,0,0,0,0,0,0,0,0,0,0,0,0,0,0,0,0,0,0,0,0,0,0,0,0,0,0,0,0,0,0,0,0,0,0,0,0,0,0,0,0,0,0,0,0,0,0,0,0,-0.1348,-0.1349,0,-0.1401,-0.1402,-0.1402,-0.1399,-0.1398,-0.1397,-0.1397,-0.145,-0.1452,-0.1454,0,0,0,0,0,0,0,0,0,0,0,0,0,-0.1244,-0.1246,-0.1348,-0.1349,-0.135,-0.1401,-0.1402,-0.1402,-0.1399,-0.1398,-0.1397,-0.1396,-0.1449,-0.1452,-0.1454,0,0,0,0,0,0,0,0,0,0,0,0,0,-0.1292,-0.1247,-0.1348,-0.1354,-0.1355,-0.1401,-0.1402,-0.1403,-0.1399,-0.1398,-0.1397,-0.1396,-0.1449,-0.1452,-0.1455,-0.1498,0,0,-0.1465,-0.1466,0,0,0,0,0,0,0,0,-0.1289,-0.1296,-0.1353,-0.1354,-0.1355,-0.1392,-0.1384,-0.1434,-0.1399,-0.1382,-0.1397,-0.1395,-0.1432,-0.1436,-0.1449,-0.15,-0.1503,-0.1465,-0.1467,-0.1468,-0.1469,0,0,0,0,0,0,0,-0.1286,-0.1294,-0.1369,-0.1353,-0.1355,-0.1354,-0.1359,-0.1394,-0.1413,-0.1384,-0.1384,-0.139,-0.1432,-0.1446,-0.145,-0.1503,-0.1465,-0.1468,-0.147,-0.1471,-0.1592,-0.1594,0,0,0,0,0,0,-0.1282,-0.1291,-0.1368,-0.1371,-0.1319,-0.1357,-0.1363,-0.1381,-0.1413,-0.1416,-0.1391,-0.139,-0.1441,-0.1446,-0.1452,-0.1504,-0.1468,-0.1471,-0.1473,-0.1591,-0.1593,-0.1594,0,0,0,0,0,0,-0.1279,-0.1288,-0.1365,-0.1331,-0.1341,-0.136,-0.1381,-0.1383,-0.1397,-0.1418,-0.1421,-0.1401,-0.144,-0.1447,-0.1486,-0.1506,-0.1473,-0.1476,-0.1589,-0.1591,-0.1593,-0.1609,0,0,0,0,0,0,-0.1276,-0.1288,-0.1305,-0.1331,-0.1342,-0.14,-0.1382,-0.1385,-0.1402,-0.1401,-0.1428,-0.1432,-0.144,-0.1481,-0.1489,-0.151,-0.1478,-0.1588,-0.159,-0.1593,-0.1607,-0.1611,-0.1615,0,0,0,0,0,-0.1273,-0.1307,-0.1305,-0.1315,-0.1364,-0.1401,-0.1407,-0.1415,-0.1404,-0.1421,-0.1434,-0.1431,-0.1502,-0.1486,-0.1494,-0.1516,-0.1587,-0.159,-0.1592,-0.1605,-0.161,-0.1615,0,0,0,0,0,0,-0.1282,-0.1311,-0.1309,-0.1353,-0.1375,-0.14,-0.1422,-0.1421,-0.1446,-0.1444,-0.1453,-0.1459,-0.1498,-0.1511,-0.1492,-0.1559,-0.1543,-0.1548,-0.1549,-0.1555,-0.1559,-0.1555,-0.1481,0,0,0,0,0,-0.1289,-0.1317,-0.134,-0.1377,-0.1387,-0.1403,-0.1419,-0.1423,-0.1446,-0.1455,-0.1471,-0.1493,-0.152,-0.1538,-0.1564,-0.1608,-0.1614,-0.1627,-0.1631,-0.1635,-0.1639,-0.1663,-0.1669,-0.1604,-0.1604,-0.1603,0,0,-0.1304,-0.1323,-0.134,-0.1379,-0.1396,-0.1424,-0.141,-0.1441,-0.1462,-0.1459,-0.1497,-0.151,-0.1535,-0.1576,-0.1596,-0.1588,-0.1658,-0.1638,-0.1641,-0.1644,-0.1667,-0.1673,-0.1678,-0.1606,-0.1605,-0.1605,0,0,-0.1347,-0.1364,-0.1396,-0.1413,-0.1439,-0.1449,-0.1456,-0.1482,-0.149,-0.1529,-0.1527,-0.1552,-0.1599,-0.1616,-0.1631,-0.1679,-0.1677,-0.1687,-0.1709,-0.1732,-0.1737,-0.1742,-0.1759,-0.1765,-0.1691,-0.1691,-0.1691,0,-0.1362,-0.1405,-0.1413,-0.1443,-0.146,-0.1459,-0.1492,-0.1508,-0.1541,-0.1552,-0.1543,-0.1602,-0.1618,-0.1664,-0.1676,-0.1688,-0.1697,-0.1685,-0.1736,-0.1741,-0.1745,-0.1761,-0.1768,-0.1692,-0.1692,-0.1692,-0.1692,0,-0.1423,-0.1452,-0.1475,-0.1507,-0.1526,-0.1558,-0.157,-0.1589,-0.1591,-0.1601,-0.164,-0.166,-0.169,-0.1701,-0.1703,-0.1747,-0.1741,-0.1734,-0.1718,-0.1752,-0.1768,-0.1774,-0.1694,-0.1694,-0.1693,-0.1693,0,0,-0.1473,-0.1509,-0.1517,-0.1531,-0.1559,-0.1582,-0.1613,-0.1642,-0.1658,-0.1681,-0.1707,-0.1746,-0.1739,-0.1756,-0.1761,-0.1781,-0.1817,-0.1771,-0.1772,-0.1779,-0.1866,-0.1872,-0.1879,-0.1816,-0.1817,-0.1818,-0.1864,0,-0.1519,-0.1574,-0.1582,-0.1631,-0.1658,-0.1656,-0.1683,-0.1703,-0.1713,-0.1738,-0.1749,-0.1777,-0.1766,-0.1776,-0.1796,-0.1809,-0.1835,-0.1805,-0.184,-0.1841,-0.1835,-0.1887,-0.1893,-0.1936,-0.187,-0.1871,-0.1872,0,-0.1579,-0.1604,-0.1655,-0.1679,-0.1691,-0.1715,-0.1742,-0.1765,-0.1787,-0.1793,-0.1812,-0.1814,-0.1845,-0.1827,-0.1871,-0.1851,-0.1865,-0.1873,-0.1875,-0.1879,-0.1859,-0.1893,-0.195,-0.1956,-0.1882,-0.1881,-0.188,0,-0.1611,-0.1657,-0.1693,-0.1706,-0.1734,-0.1751,-0.1764,-0.1785,-0.1802,-0.1825,-0.1836,-0.1863,-0.1878,-0.1898,-0.1907,-0.1893,-0.195,-0.1933,-0.1956,-0.1956,-0.1968,-0.1968,-0.2029,-0.1977,-0.1977,-0.1977,-0.1977,0,-0.1662,-0.1693,-0.1708,-0.1731,-0.1766,-0.1774,-0.1808,-0.182,-0.1839,-0.1863,-0.1864,-0.1887,-0.1896,-0.1921,-0.1928,-0.1962,-0.1969,-0.1975,-0.1976,-0.1975,-0.1974,-0.1985,-0.1982,-0.1978,-0.1978,-0.1978,-0.1977,0,-0.1704,-0.1715,-0.1755,-0.1779,-0.1785,-0.181,-0.183,-0.1852,-0.1861,-0.1892,-0.19,-0.1915,-0.1944,-0.1954,-0.1989,-0.1994,-0.2034,-0.2033,-0.2027,-0.2027,-0.205,-0.2047,-0.212,-0.213,-0.2071,-0.2072,-0.2072,0,-0.1735,-0.176,-0.1786,-0.1802,-0.1815,-0.1842,-0.1859,-0.1867,-0.1885,-0.1912,-0.193,-0.1959,-0.1982,-0.2028,-0.2042,-0.2068,-0.2068,-0.2091,-0.2072,-0.207,-0.2068,-0.2067,-0.2069,-0.2095,-0.2096,-0.2096,-0.2097,0,-0.179,-0.1794,-0.1819,-0.1846,-0.1867,-0.1888,-0.1909,-0.1922,-0.1933,-0.1953,-0.1983,-0.2001,-0.2036,-0.2064,-0.2091,-0.2104,-0.2102,-0.2103,-0.2109,-0.2109,-0.2104,-0.2107,-0.2037,-0.2101,-0.2101,-0.21,-0.21,-0.21,-0.1828,-0.1849,-0.1871,-0.1899,-0.1915,-0.1934,-0.1956,-0.1968,-0.1993,-0.2022,-0.2025,-0.2057,-0.2077,-0.2113,-0.2127,-0.2151,-0.2145,-0.2155,-0.2157,-0.2159,-0.2161,-0.21,-0.2156,-0.2156,-0.2156,-0.2156,-0.2156,0,-0.1883,-0.1896,-0.1922,-0.1951,-0.1972,-0.1969,-0.1991,-0.201,-0.2037,-0.2057,-0.208,-0.2113,-0.214,-0.2156,-0.2183,-0.2199,-0.2199,-0.2206,-0.2205,-0.2208,-0.2165,-0.2157,-0.2206,-0.2206,-0.2206,-0.2206,-0.2206,-0.2206,-0.1914,-0.195,-0.1957,-0.2,-0.2014,-0.2045,-0.2058,-0.2075,-0.2091,-0.2128,-0.2151,-0.2161,-0.2179,-0.2207,-0.2231,-0.2235,-0.2245,-0.2253,-0.2256,-0.2216,-0.2211,-0.2206,-0.2198,-0.2255,-0.2255,-0.2296,-0.2297,-0.2297]},{"header":{"parameterUnit":"m.s-1","parameterCategory":1,"la1":30.2991,"la2":30.254,"lo1":-89.0895,"lo2":-89.0444,"dy":0.0017,"dx":0.0017,"nx":28,"ny":28,"refTime":"2024-08-12T21:00:00:Z","depth":0,"parameterNumber":3,"parameterNumberName":"V-component_of_WINDS"},"data":[0,0,0,0,0,0,0,0,0,0,0,0,0,0,0,0,0,0,0,0,0,0,0,0,0,0,0,0,0,0,0,0,0,0,0,0,0,0,0,0,0,0,0,0,0,0,0,0,0,0,0,0,0,0,0,0,0,0,-1.6689,-1.669,0,-1.6742,-1.6742,-1.6743,-1.6726,-1.6725,-1.6724,-1.6723,-1.6776,-1.6778,-1.6781,0,0,0,0,0,0,0,0,0,0,0,0,0,-1.6575,-1.6577,-1.6689,-1.669,-1.6691,-1.6742,-1.6742,-1.6743,-1.6727,-1.6725,-1.6724,-1.6723,-1.6775,-1.6778,-1.6781,0,0,0,0,0,0,0,0,0,0,0,0,0,-1.6626,-1.6578,-1.6689,-1.6689,-1.6689,-1.6741,-1.6742,-1.6743,-1.6727,-1.6725,-1.6724,-1.6722,-1.6774,-1.6778,-1.6781,-1.6837,0,0,-1.6792,-1.6794,0,0,0,0,0,0,0,0,-1.6623,-1.663,-1.6688,-1.6689,-1.6689,-1.6726,-1.6721,-1.6775,-1.6727,-1.6713,-1.6723,-1.6721,-1.676,-1.6765,-1.6779,-1.6839,-1.6842,-1.6793,-1.6795,-1.6796,-1.6797,0,0,0,0,0,0,0,-1.6619,-1.6628,-1.671,-1.6689,-1.669,-1.6686,-1.6691,-1.6731,-1.6745,-1.6714,-1.6713,-1.6719,-1.676,-1.6775,-1.678,-1.6842,-1.6793,-1.6796,-1.6798,-1.6799,-1.6954,-1.6956,0,0,0,0,0,0,-1.6616,-1.6625,-1.6708,-1.6712,-1.6651,-1.6689,-1.6695,-1.6716,-1.6745,-1.6747,-1.672,-1.6718,-1.677,-1.6775,-1.6781,-1.6851,-1.6796,-1.68,-1.6802,-1.6952,-1.6954,-1.6956,0,0,0,0,0,0,-1.6613,-1.6623,-1.6706,-1.6668,-1.6678,-1.6693,-1.6716,-1.6718,-1.6732,-1.675,-1.6752,-1.6733,-1.6769,-1.6776,-1.6824,-1.6852,-1.6801,-1.6805,-1.695,-1.6953,-1.6955,-1.6988,0,0,0,0,0,0,-1.661,-1.6622,-1.6644,-1.6669,-1.668,-1.6748,-1.6718,-1.672,-1.6739,-1.6736,-1.6762,-1.6765,-1.6768,-1.6819,-1.6828,-1.6856,-1.6808,-1.6947,-1.6951,-1.6954,-1.6985,-1.6992,-1.6998,0,0,0,0,0,-1.6606,-1.665,-1.6645,-1.6655,-1.6707,-1.675,-1.6756,-1.6759,-1.6741,-1.6763,-1.6774,-1.6764,-1.6847,-1.6824,-1.6833,-1.6864,-1.6946,-1.695,-1.6954,-1.6982,-1.699,-1.6998,0,0,0,0,0,0,-1.6628,-1.6653,-1.6648,-1.6701,-1.6724,-1.6747,-1.6774,-1.6768,-1.6795,-1.6792,-1.6794,-1.68,-1.6849,-1.6861,-1.6834,-1.692,-1.6894,-1.69,-1.6911,-1.692,-1.6926,-1.6923,-1.6811,0,0,0,0,0,-1.6639,-1.6671,-1.6691,-1.6737,-1.6748,-1.6759,-1.6778,-1.6778,-1.6801,-1.681,-1.6825,-1.6848,-1.6879,-1.69,-1.6929,-1.6986,-1.6992,-1.7011,-1.7018,-1.7023,-1.7029,-1.7062,-1.7072,-1.697,-1.697,-1.697,0,0,-1.6662,-1.668,-1.67,-1.6742,-1.6759,-1.6793,-1.6767,-1.6804,-1.6829,-1.6816,-1.6862,-1.6874,-1.6899,-1.6952,-1.6976,-1.6963,-1.7059,-1.7029,-1.7033,-1.7036,-1.7068,-1.7077,-1.7086,-1.6973,-1.6973,-1.6972,0,0,-1.6722,-1.6738,-1.6778,-1.6796,-1.6823,-1.6831,-1.684,-1.6865,-1.6872,-1.6919,-1.6911,-1.694,-1.6994,-1.7013,-1.7029,-1.7098,-1.709,-1.7107,-1.7142,-1.7174,-1.7182,-1.7189,-1.7216,-1.7225,-1.7113,-1.7113,-1.7113,0,-1.6747,-1.6798,-1.68,-1.6838,-1.6857,-1.6847,-1.6889,-1.6906,-1.6941,-1.6955,-1.694,-1.7008,-1.7024,-1.7082,-1.7099,-1.7112,-1.7124,-1.7105,-1.7181,-1.7188,-1.7195,-1.722,-1.723,-1.7115,-1.7115,-1.7114,-1.7114,0,-1.6829,-1.6864,-1.6894,-1.6929,-1.6951,-1.6991,-1.6999,-1.7021,-1.702,-1.7029,-1.7078,-1.7096,-1.7131,-1.7144,-1.7143,-1.7203,-1.7194,-1.718,-1.7154,-1.7207,-1.723,-1.724,-1.7118,-1.7117,-1.7117,-1.7116,0,0,-1.6904,-1.6941,-1.6952,-1.6969,-1.6998,-1.7025,-1.7064,-1.7099,-1.7119,-1.7143,-1.7177,-1.7223,-1.7211,-1.7229,-1.723,-1.7258,-1.7313,-1.724,-1.7241,-1.7255,-1.7383,-1.7395,-1.7406,-1.7307,-1.7309,-1.7311,-1.7381,0,-1.6968,-1.7038,-1.7042,-1.7105,-1.7139,-1.7131,-1.7165,-1.7187,-1.7196,-1.7226,-1.7236,-1.727,-1.725,-1.7262,-1.7289,-1.7301,-1.7339,-1.7295,-1.734,-1.7342,-1.7336,-1.7418,-1.7431,-1.7497,-1.739,-1.7392,-1.7393,0,-1.7052,-1.7081,-1.7148,-1.7174,-1.7188,-1.722,-1.7252,-1.7281,-1.7305,-1.731,-1.7332,-1.7329,-1.737,-1.7341,-1.7398,-1.7369,-1.7387,-1.7396,-1.7398,-1.7404,-1.7372,-1.7428,-1.7517,-1.7528,-1.7407,-1.7406,-1.7405,0,-1.7103,-1.7158,-1.7206,-1.722,-1.7251,-1.7274,-1.7288,-1.7311,-1.7332,-1.736,-1.7374,-1.7406,-1.7424,-1.7449,-1.7455,-1.7433,-1.7513,-1.7484,-1.7519,-1.7519,-1.7538,-1.7537,-1.7633,-1.7546,-1.7546,-1.7546,-1.7545,0,-1.7175,-1.7217,-1.723,-1.7259,-1.7307,-1.731,-1.7357,-1.7369,-1.739,-1.7423,-1.7416,-1.7447,-1.7452,-1.7483,-1.7488,-1.7536,-1.7543,-1.7549,-1.755,-1.7551,-1.7551,-1.7564,-1.7561,-1.7548,-1.7548,-1.7547,-1.7547,0,-1.7241,-1.725,-1.7303,-1.7328,-1.7336,-1.737,-1.7392,-1.7421,-1.7429,-1.7471,-1.748,-1.7494,-1.7532,-1.754,-1.7583,-1.7586,-1.7644,-1.7639,-1.7636,-1.7636,-1.7672,-1.7669,-1.7782,-1.7798,-1.7698,-1.7699,-1.77,0,-1.7287,-1.732,-1.7349,-1.7371,-1.7386,-1.7421,-1.7443,-1.7447,-1.747,-1.7502,-1.7528,-1.7564,-1.7594,-1.7653,-1.7668,-1.7701,-1.7699,-1.7736,-1.7704,-1.7704,-1.7702,-1.7701,-1.7705,-1.7743,-1.7744,-1.7745,-1.7745,0,-1.7369,-1.7373,-1.7405,-1.7439,-1.7466,-1.7493,-1.7518,-1.7536,-1.7544,-1.7571,-1.7609,-1.7632,-1.7678,-1.7714,-1.7748,-1.7762,-1.7756,-1.7755,-1.7766,-1.7768,-1.7765,-1.7769,-1.7655,-1.7753,-1.7752,-1.7752,-1.7751,-1.7751,-1.7428,-1.7458,-1.7484,-1.752,-1.754,-1.7565,-1.7594,-1.7607,-1.7639,-1.7677,-1.7678,-1.772,-1.7745,-1.779,-1.7807,-1.784,-1.7828,-1.7843,-1.7847,-1.7851,-1.7855,-1.7759,-1.7846,-1.7846,-1.7845,-1.7845,-1.7845,0,-1.7512,-1.7529,-1.7562,-1.7599,-1.7628,-1.7619,-1.7647,-1.7672,-1.771,-1.7734,-1.7764,-1.7809,-1.7845,-1.7862,-1.7898,-1.7921,-1.7919,-1.7931,-1.793,-1.7934,-1.7863,-1.7851,-1.7932,-1.7932,-1.7932,-1.7932,-1.7932,-1.7932,-1.7559,-1.761,-1.7616,-1.7677,-1.7693,-1.7735,-1.7752,-1.7775,-1.7795,-1.7846,-1.7876,-1.7887,-1.7909,-1.7946,-1.7979,-1.7983,-1.7998,-1.8011,-1.8014,-1.7947,-1.7939,-1.793,-1.792,-1.8014,-1.8014,-1.8083,-1.8083,-1.8084]}]]